Location: Altoona
(40.5167°N, 78.4000°W)
Time: 02:51:32
(UTC-05:00)

Cosmos 1500 - Pass Details

Date: 21 August 2017
Orbit: 503 x 522 km, 82.5° (Epoch: 20 November)

Event Time Altitude Azimuth Distance (km) Brightness Sun altitude
Exits shadow 21:55:30 56° 85° (E) 630 3.3 -20.1°
Drops below altitude 10° 21:59:10 10° 16° (NNE) 1,767 6.1 -20.6°
Sets 22:01:20 0° 13° (NNE) 2,659 7.2 -21.0°
